Back to catalog

NOAA 16 DEB

AliveSSO
NORAD 41525·DEBRIS·🇺🇸 United States

Launched Sep 21, 2000 from Vandenberg Space Force Base

Loading…

Next Passes (next 24 hours)

TLE

FreshSource: Space-Track

Epoch: Sep 14, 2026, 10:31 UTC

1 41525U 00055MZ  26257.43869650  .00002357  00000-0  91063-3 0  9999
2 41525  98.6503 328.5454 0009974 253.2381 106.7708 14.31082029542396

Track NOAA 16 DEB in real time with AllMySat

Download on the App Store